Terminal Aerodrome Forecast
Issued by NWS Detroit/Pontiac, MI

Home | Current Version | Previous Version | Text Only | Print | Product List | Glossary On
Versions: 1 2 3 4 5 6 7 8 9 10 11 12 13 14 15 16 17 18 19 20 21 22 23 24 25 26
000
FTUS43 KDTX 192300
TAFDTW
TAF
KDTW 192320Z 2000/2106 12008KT P6SM SKC
     FM200200 07005KT P6SM SCT250
     FM201500 16007KT P6SM SCT250
     FM210000 14004KT P6SM BKN250=

USA.gov is the U.S. government's official web portal to all federal, state and local government web resources and services.